KG0HG Weather Reports


time (UTC)temp
C
wind
direction
speed
KPH
gust
KPH
rain 1hr
cm
rain 24hr
cm
rain mn
cm
humidity
%
barometer
mb
20260906172448 33 148 0.0 3.2 0.00 0.00 0.00 56 1015.5
20260906171943 35 148 0.0 1.6 0.00 0.00 0.00 57 1015.7
20260906171437 34 150 1.6 3.2 0.00 0.00 0.00 57 1015.9
20260906170933 33 150 0.0 1.6 0.00 0.00 0.00 59 1015.9
20260906170429 33 150 0.0 3.2 0.00 0.00 0.00 60 1016.3
20260906165925 33 153 0.0 3.2 0.00 0.00 0.00 58 1016.2
20260906165419 33 153 0.0 1.6 0.00 0.00 0.00 61 1016.4
20260906164914 33 153 0.0 3.2 0.00 0.00 0.00 62 1016.3
20260906164413 32 156 0.0 0.0 0.00 0.00 0.00 64 1016.5
20260906163909 33 158 0.0 0.0 0.00 0.00 0.00 63 1016.5
20260906163405 32 158 0.0 0.0 0.00 0.00 0.00 64 1016.3
20260906162903 32 158 0.0 1.6 0.00 0.00 0.00 65 1016.4
20260906162401 32 158 0.0 1.6 0.00 0.00 0.00 64 1016.4
20260906161856 32 158 0.0 1.6 0.00 0.00 0.00 66 1016.4
20260906161350 32 154 0.0 0.0 0.00 0.00 0.00 66 1016.3
20260906160849 32 154 0.0 0.0 0.00 0.00 0.00 66 1016.3
20260906160343 31 154 0.0 1.6 0.00 0.00 0.00 68 1016.4
20260906155841 31 154 0.0 1.6 0.00 0.00 0.00 68 1016.3
20260906155335 31 159 0.0 3.2 0.00 0.00 0.00 69 1016.2
20260906154831 31 160 0.0 3.2 0.00 0.00 0.00 71 1016.3
20260906154320 30 161 0.0 4.8 0.00 0.00 0.00 70 1016.2
20260906153818 30 152 1.6 3.2 0.00 0.00 0.00 71 1016.3
20260906153313 30 152 0.0 0.0 0.00 0.00 0.00 71 1016.2
20260906152808 30 152 0.0 0.0 0.00 0.00 0.00 72 1016.3
20260906152306 30 152 0.0 0.0 0.00 0.00 0.00 72 1016.2
20260906151802 30 153 1.6 3.2 0.00 0.00 0.00 72 1016.2
20260906151258 30 130 0.0 3.2 0.00 0.00 0.00 73 1016.3
20260906150753 29 129 1.6 1.6 0.00 0.00 0.00 74 1016.2
20260906150249 29 129 0.0 0.0 0.00 0.00 0.00 75 1016.2
20260906145748 28 129 0.0 1.6 0.00 0.00 0.00 76 1016.3
20260906145246 28 129 0.0 0.0 0.00 0.00 0.00 76 1016.2
20260906144742 28 129 0.0 0.0 0.00 0.00 0.00 76 1016.2
20260906144237 28 129 0.0 0.0 0.00 0.00 0.00 77 1016.5
20260906143736 28 126 1.6 1.6 0.00 0.00 0.00 78 1016.4
20260906143233 28 126 0.0 3.2 0.00 0.00 0.00 78 1016.3
20260906142732 27 114 0.0 0.0 0.00 0.00 0.00 79 1016.2
20260906142228 27 113 0.0 1.6 0.00 0.00 0.00 80 1016.0
20260906141727 27 44 0.0 0.0 0.00 0.00 0.00 81 1016.3
20260906141222 27 44 0.0 0.0 0.00 0.00 0.00 82 1016.0
20260906140721 26 44 0.0 0.0 0.00 0.00 0.00 83 1016.6
20260906140216 26 44 0.0 1.6 0.00 0.00 0.00 84 1016.5
20260906135713 26 81 0.0 1.6 0.00 0.00 0.00 84 1016.4
20260906135209 26 81 0.0 3.2 0.00 0.00 0.00 85 1016.5
20260906134704 25 84 1.6 1.6 0.00 0.00 0.00 85 1016.4
20260906134159 25 86 0.0 0.0 0.00 0.00 0.00 86 1016.2
20260906133655 25 85 0.0 0.0 0.00 0.00 0.00 87 1016.0
20260906133150 25 85 0.0 0.0 0.00 0.00 0.00 87 1016.0
20260906132645 25 85 0.0 0.0 0.00 0.00 0.00 89 1015.9
20260906132141 24 85 0.0 0.0 0.00 0.00 0.00 90 1015.8
20260906131636 23 85 0.0 0.0 0.00 0.00 0.00 92 1015.8
20260906131131 23 85 0.0 1.6 0.00 0.00 0.00 94 1016.0
20260906130627 23 91 1.6 1.6 0.00 0.00 0.00 95 1015.7
20260906130121 23 91 0.0 1.6 0.00 0.00 0.00 96 1015.7
20260906125619 23 91 0.0 0.0 0.00 0.00 0.00 97 1016.0
20260906125112 23 91 0.0 0.0 0.00 0.00 0.00 97 1015.6
20260906124608 22 91 0.0 1.6 0.00 0.00 0.00 97 1015.6
20260906124103 22 91 0.0 0.0 0.00 0.00 0.00 97 1015.5
20260906123602 22 91 0.0 0.0 0.00 0.00 0.00 97 1015.5
20260906123057 22 91 0.0 0.0 0.00 0.00 0.00 97 1015.6
20260906122556 22 91 0.0 0.0 0.00 0.00 0.00 97 1015.4
20260906122053 22 91 0.0 0.0 0.00 0.00 0.00 97 1015.5
20260906121548 22 91 0.0 0.0 0.00 0.00 0.00 97 1015.4
20260906121045 22 91 0.0 0.0 0.00 0.00 0.00 97 1015.4
20260906120540 22 91 0.0 0.0 0.00 0.00 0.00 97 1015.2
20260906120037 22 91 0.0 0.0 0.00 0.00 0.00 97 1015.3
20260906115536 22 91 0.0 0.0 0.00 0.00 0.00 97 1015.3
20260906115032 22 91 0.0 0.0 0.00 0.00 0.00 97 1015.2
20260906114526 22 91 0.0 0.0 0.00 0.00 0.00 97 1015.0
20260906114022 22 91 0.0 0.0 0.00 0.00 0.00 97 1015.1
20260906113520 22 91 0.0 0.0 0.00 0.00 0.00 97 1015.1
20260906113016 22 91 0.0 0.0 0.00 0.00 0.00 97 1014.9
20260906112511 22 91 0.0 0.0 0.00 0.00 0.00 97 1015.0
20260906112008 22 91 0.0 0.0 0.00 0.00 0.00 97 1014.8
20260906111507 22 91 0.0 0.0 0.00 0.00 0.00 97 1014.8
20260906111002 22 91 0.0 0.0 0.00 0.00 0.00 97 1014.8
20260906110456 22 91 0.0 0.0 0.00 0.00 0.00 96 1014.7
20260906105955 23 91 0.0 0.0 0.00 0.00 0.00 96 1014.9
20260906105452 23 91 0.0 0.0 0.00 0.00 0.00 96 1014.8
20260906104947 23 91 0.0 0.0 0.00 0.00 0.00 96 1014.7
20260906104446 23 91 0.0 0.0 0.00 0.00 0.00 96 1014.9
20260906103945 23 91 0.0 0.0 0.00 0.00 0.00 96 1014.7
20260906103443 23 91 0.0 0.0 0.00 0.00 0.00 96 1014.8
20260906102939 23 91 0.0 0.0 0.00 0.00 0.00 96 1014.8
20260906102438 23 91 0.0 0.0 0.00 0.00 0.00 96 1014.7
20260906101933 23 91 0.0 0.0 0.00 0.00 0.00 96 1014.8
20260906101428 23 91 0.0 0.0 0.00 0.00 0.00 96 1015.0
20260906100924 23 91 0.0 0.0 0.00 0.00 0.00 96 1014.9
20260906100418 23 91 0.0 0.0 0.00 0.00 0.00 96 1014.8
20260906095912 23 91 0.0 0.0 0.00 0.00 0.00 96 1014.7
20260906095409 23 91 0.0 0.0 0.00 0.00 0.00 95 1014.5
20260906094907 23 91 0.0 0.0 0.00 0.00 0.00 95 1014.6
20260906094403 23 91 0.0 0.0 0.00 0.00 0.00 95 1014.9
20260906093859 23 91 0.0 0.0 0.00 0.00 0.00 95 1014.3
20260906093355 23 91 0.0 0.0 0.00 0.00 0.00 95 1014.4
20260906092849 23 91 0.0 0.0 0.00 0.00 0.00 95 1014.6
20260906092344 23 91 0.0 0.0 0.00 0.00 0.00 95 1014.2
20260906091839 23 91 0.0 0.0 0.00 0.00 0.00 95 1014.4
20260906091335 23 91 0.0 0.0 0.00 0.00 0.00 95 1014.2
20260906090832 23 91 0.0 0.0 0.00 0.00 0.00 95 1014.4
20260906090331 23 91 0.0 0.0 0.00 0.00 0.00 95 1014.4
20260906085830 23 91 0.0 0.0 0.00 0.00 0.00 94 1014.2
20260906085324 23 91 0.0 0.0 0.00 0.00 0.00 94 1014.1
20260906084819 23 91 0.0 0.0 0.00 0.00 0.00 94 1014.2
20260906084319 23 91 0.0 0.0 0.00 0.00 0.00 94 1014.1
20260906083813 23 91 0.0 0.0 0.00 0.00 0.00 94 1014.3
20260906083309 23 91 0.0 0.0 0.00 0.00 0.00 94 1014.2
20260906082803 23 91 0.0 0.0 0.00 0.00 0.00 94 1014.1
20260906082258 23 91 0.0 0.0 0.00 0.00 0.00 94 1014.2
20260906081754 23 91 0.0 0.0 0.00 0.00 0.00 94 1014.2
20260906081250 23 91 0.0 0.0 0.00 0.00 0.00 93 1014.2
20260906080745 24 91 0.0 0.0 0.00 0.00 0.00 93 1014.2
20260906080241 24 91 0.0 0.0 0.00 0.00 0.00 93 1014.2
20260906075735 24 91 0.0 0.0 0.00 0.00 0.00 93 1014.2
20260906075230 24 91 0.0 0.0 0.00 0.00 0.00 93 1014.0
20260906074725 24 91 0.0 0.0 0.00 0.00 0.00 93 1014.0
20260906074224 24 91 0.0 0.0 0.00 0.00 0.00 93 1014.0
20260906073719 24 91 0.0 0.0 0.00 0.00 0.00 93 1013.9
20260906073214 24 91 0.0 0.0 0.00 0.00 0.00 93 1013.8
20260906072710 24 91 0.0 0.0 0.00 0.00 0.00 93 1013.9
20260906072205 24 91 0.0 0.0 0.00 0.00 0.00 93 1014.0
20260906071701 24 91 0.0 0.0 0.00 0.00 0.00 93 1014.1
20260906071201 24 91 0.0 0.0 0.00 0.00 0.00 93 1014.1
20260906070658 24 91 0.0 0.0 0.00 0.00 0.00 93 1014.1
20260906070153 24 91 0.0 0.0 0.00 0.00 0.00 93 1014.3
20260906065652 24 91 0.0 0.0 0.00 0.00 0.00 93 1014.4
20260906065148 24 91 0.0 0.0 0.00 0.00 0.00 93 1014.5
20260906064643 24 91 0.0 0.0 0.00 0.00 0.00 93 1014.4
20260906064139 24 91 0.0 0.0 0.00 0.00 0.00 93 1014.5
20260906063634 24 91 0.0 0.0 0.00 0.00 0.00 93 1014.4
20260906063129 24 91 0.0 0.0 0.00 0.00 0.00 93 1014.5
20260906062625 24 91 0.0 0.0 0.00 0.00 0.00 93 1014.4
20260906062123 25 91 0.0 0.0 0.00 0.00 0.00 93 1014.5
20260906061620 25 91 0.0 0.0 0.00 0.00 0.00 93 1014.3
20260906061119 25 91 0.0 0.0 0.00 0.00 0.00 93 1014.3
20260906060616 25 91 0.0 0.0 0.00 0.00 0.00 93 1014.6
20260906060109 25 91 0.0 0.0 0.00 0.00 0.00 92 1014.5
20260906055603 25 91 0.0 0.0 0.00 0.00 0.00 92 1014.3
20260906055059 25 91 0.0 0.0 0.00 0.00 0.00 92 1014.3
20260906054558 25 91 0.0 0.0 0.00 0.00 0.00 92 1014.6
20260906054054 25 91 0.0 0.0 0.00 0.00 0.00 92 1014.3
20260906053550 25 91 0.0 0.0 0.00 0.00 0.00 91 1014.7
20260906053046 25 91 0.0 0.0 0.00 0.00 0.00 91 1014.6
20260906052541 25 91 0.0 0.0 0.00 0.00 0.00 91 1014.5
20260906052038 25 91 0.0 0.0 0.00 0.00 0.00 91 1014.3
20260906051533 25 91 0.0 0.0 0.00 0.00 0.00 91 1014.4
20260906051029 25 91 0.0 0.0 0.00 0.00 0.00 90 1014.4
20260906050524 25 91 0.0 0.0 0.00 0.00 0.00 90 1014.2
20260906050019 25 91 0.0 0.0 0.00 0.00 0.00 90 1014.4
20260906045517 25 91 0.0 0.0 0.00 0.00 0.00 90 1014.5
20260906045013 26 91 0.0 0.0 0.00 0.00 0.00 89 1014.4
20260906044508 26 91 0.0 0.0 0.00 0.00 0.00 89 1014.5
20260906044004 26 91 0.0 0.0 0.00 0.00 0.00 89 1014.5
20260906043459 26 91 0.0 0.0 0.00 0.00 0.00 88 1014.4
20260906042955 26 91 0.0 0.0 0.00 0.00 0.00 88 1014.3
20260906042454 26 91 0.0 0.0 0.00 0.00 0.00 88 1014.4
20260906041954 26 91 0.0 0.0 0.00 0.00 0.00 87 1014.3
20260906041450 26 91 0.0 0.0 0.00 0.00 0.00 87 1014.2
20260906040949 26 91 0.0 0.0 0.00 0.00 0.00 87 1014.2
20260906040444 26 91 0.0 0.0 0.00 0.00 0.00 86 1014.4
20260906035940 26 91 0.0 0.0 0.00 0.00 0.00 86 1014.2
20260906035435 26 91 0.0 0.0 0.00 0.00 0.00 86 1014.1
20260906034931 26 91 0.0 0.0 0.00 0.00 0.00 85 1014.3
20260906034425 27 91 0.0 0.0 0.00 0.00 0.00 84 1014.2
20260906033921 27 91 0.0 0.0 0.00 0.00 0.00 84 1014.0
20260906033421 27 91 0.0 0.0 0.00 0.00 0.00 83 1014.0
20260906032917 27 91 0.0 0.0 0.00 0.00 0.00 82 1014.1
20260906032413 27 91 0.0 0.0 0.00 0.00 0.00 81 1013.9
20260906031907 27 91 0.0 0.0 0.00 0.00 0.00 80 1013.8
20260906031403 27 91 0.0 0.0 0.00 0.00 0.00 79 1013.8
20260906030858 27 91 0.0 0.0 0.00 0.00 0.00 78 1013.9
20260906030358 27 91 0.0 0.0 0.00 0.00 0.00 79 1013.8
20260906025853 27 91 0.0 0.0 0.00 0.00 0.00 79 1013.7
20260906025347 27 91 0.0 0.0 0.00 0.00 0.00 79 1013.6
20260906024846 28 91 0.0 0.0 0.00 0.00 0.00 78 1013.5
20260906024345 28 91 0.0 0.0 0.00 0.00 0.00 75 1013.5
20260906023841 28 91 0.0 0.0 0.00 0.00 0.00 74 1013.6
20260906023337 28 91 0.0 0.0 0.00 0.00 0.00 73 1013.5
20260906022831 28 91 0.0 0.0 0.00 0.00 0.00 73 1013.7
20260906022327 28 91 0.0 0.0 0.00 0.00 0.00 71 1013.4
20260906021823 29 91 0.0 0.0 0.00 0.00 0.00 71 1013.1
20260906021322 29 91 0.0 0.0 0.00 0.00 0.00 71 1013.3
20260906020822 29 91 0.0 0.0 0.00 0.00 0.00 70 1013.2
20260906020321 30 91 0.0 0.0 0.00 0.00 0.00 69 1013.2
20260906015816 30 91 0.0 0.0 0.00 0.00 0.00 68 1013.1
20260906015314 30 91 0.0 0.0 0.00 0.00 0.00 68 1013.1
20260906014809 30 91 0.0 0.0 0.00 0.00 0.00 67 1012.9
20260906014305 30 91 0.0 0.0 0.00 0.00 0.00 67 1012.9
20260906013800 30 91 0.0 0.0 0.00 0.00 0.00 66 1012.8
20260906013255 30 91 0.0 0.0 0.00 0.00 0.00 65 1012.9
20260906012751 31 91 0.0 0.0 0.00 0.00 0.00 64 1012.8
20260906012246 31 91 0.0 0.0 0.00 0.00 0.00 64 1012.5
20260906011741 31 91 0.0 0.0 0.00 0.00 0.00 63 1012.6
20260906011241 31 91 0.0 0.0 0.00 0.00 0.00 62 1012.8
20260906010736 31 91 0.0 0.0 0.00 0.00 0.00 62 1012.8
20260906010232 31 91 0.0 0.0 0.00 0.00 0.00 61 1012.7
20260906005727 31 91 0.0 0.0 0.00 0.00 0.00 61 1012.7
20260906005220 31 91 0.0 0.0 0.00 0.00 0.00 61 1012.7
20260906004720 31 91 0.0 0.0 0.00 0.00 0.00 60 1012.8
20260906004215 32 120 0.0 0.0 0.00 0.00 0.00 60 1012.5
20260906003710 32 120 0.0 0.0 0.00 0.00 0.00 60 1012.4
20260906003205 32 120 0.0 0.0 0.00 0.00 0.00 59 1012.7
20260906002659 32 120 0.0 0.0 0.00 0.00 0.00 58 1012.8
20260906002149 32 120 0.0 0.0 0.00 0.00 0.00 58 1012.5
20260906001644 32 120 0.0 0.0 0.00 0.00 0.00 57 1012.6
20260906001144 33 120 0.0 0.0 0.00 0.00 0.00 57 1012.7
20260906000640 33 120 0.0 0.0 0.00 0.00 0.00 56 1012.6
20260906000135 33 120 0.0 0.0 0.00 0.00 0.00 55 1012.4
20260905235633 33 120 0.0 0.0 0.00 0.00 0.00 54 1012.6
20260905235129 34 120 0.0 0.0 0.00 0.00 0.00 55 1012.4
20260905234624 35 120 0.0 0.0 0.00 0.00 0.00 54 1012.5
20260905234120 35 120 0.0 0.0 0.00 0.00 0.00 52 1012.5
20260905233614 35 120 0.0 0.0 0.00 0.00 0.00 52 1012.3
20260905233109 35 120 0.0 0.0 0.00 0.00 0.00 51 1012.6
20260905232604 35 120 0.0 0.0 0.00 0.00 0.00 49 1012.5
20260905232059 36 120 0.0 0.0 0.00 0.00 0.00 49 1012.4
20260905231554 36 120 0.0 1.6 0.00 0.00 0.00 49 1012.6
20260905231051 36 120 0.0 0.0 0.00 0.00 0.00 48 1012.3
20260905230550 36 120 0.0 1.6 0.00 0.00 0.00 47 1012.2
20260905230048 36 117 0.0 1.6 0.00 0.00 0.00 49 1012.5
20260905225543 36 135 0.0 1.6 0.00 0.00 0.00 47 1012.3
20260905225038 36 135 0.0 1.6 0.00 0.00 0.00 47 1012.1
20260905224532 36 135 0.0 3.2 0.00 0.00 0.00 47 1012.4
20260905224032 36 135 1.6 1.6 0.00 0.00 0.00 47 1012.4
20260905223530 36 135 0.0 1.6 0.00 0.00 0.00 47 1012.2
20260905223025 36 134 0.0 4.8 0.00 0.00 0.00 47 1012.3
20260905222525 36 132 1.6 1.6 0.00 0.00 0.00 46 1012.3
20260905222020 37 135 1.6 3.2 0.00 0.00 0.00 46 1012.5
20260905221517 36 133 0.0 0.0 0.00 0.00 0.00 47 1012.3
20260905221013 36 133 0.0 3.2 0.00 0.00 0.00 47 1012.5
20260905220509 36 81 0.0 0.0 0.00 0.00 0.00 47 1012.6
20260905220004 36 82 0.0 1.6 0.00 0.00 0.00 46 1012.7
20260905215458 36 82 0.0 3.2 0.00 0.00 0.00 46 1012.7
20260905214954 36 35 1.6 1.6 0.00 0.00 0.00 47 1012.9
20260905214449 36 123 1.6 1.6 0.00 0.00 0.00 46 1012.9
20260905213944 36 24 1.6 3.2 0.00 0.00 0.00 47 1012.8
20260905213440 36 356 3.2 3.2 0.00 0.00 0.00 47 1013.0
20260905212935 36 102 0.0 1.6 0.00 0.00 0.00 48 1013.1
20260905212430 36 349 1.6 8.0 0.00 0.00 0.00 47 1013.1
20260905211929 36 130 1.6 4.8 0.00 0.00 0.00 47 1013.1
20260905211425 36 107 1.6 3.2 0.00 0.00 0.00 48 1013.4
20260905210920 36 27 3.2 4.8 0.00 0.00 0.00 47 1013.2
20260905210415 36 126 0.0 3.2 0.00 0.00 0.00 48 1013.3
20260905205915 36 171 3.2 3.2 0.00 0.00 0.00 48 1013.1
20260905205410 36 113 1.6 3.2 0.00 0.00 0.00 48 1013.5
20260905204908 35 85 1.6 3.2 0.00 0.00 0.00 47 1013.3
20260905204405 36 345 1.6 4.8 0.00 0.00 0.00 49 1013.3
20260905203903 36 344 1.6 3.2 0.00 0.00 0.00 49 1013.4
20260905203359 36 139 1.6 4.8 0.00 0.00 0.00 48 1013.5
20260905202854 36 49 0.0 3.2 0.00 0.00 0.00 48 1013.4
20260905202349 36 117 3.2 3.2 0.00 0.00 0.00 48 1013.6
20260905201844 36 138 0.0 3.2 0.00 0.00 0.00 51 1013.7
20260905201340 35 164 0.0 1.6 0.00 0.00 0.00 49 1013.7
20260905200834 36 162 4.8 8.0 0.00 0.00 0.00 49 1013.8
20260905200331 36 104 0.0 1.6 0.00 0.00 0.00 49 1013.8
20260905195827 36 72 0.0 4.8 0.00 0.00 0.00 49 1013.9
20260905195323 36 310 0.0 3.2 0.00 0.00 0.00 48 1013.9
20260905194819 36 312 0.0 3.2 0.00 0.00 0.00 47 1013.9
20260905194313 36 311 1.6 1.6 0.00 0.00 0.00 45 1014.1
20260905193812 36 316 1.6 3.2 0.00 0.00 0.00 46 1013.9
20260905193307 36 316 1.6 1.6 0.00 0.00 0.00 45 1014.1
20260905192803 36 318 0.0 3.2 0.00 0.00 0.00 44 1014.1
20260905192259 36 307 1.6 8.0 0.00 0.00 0.00 43 1014.0
20260905191758 36 156 3.2 4.8 0.00 0.00 0.00 44 1014.2
20260905191256 37 149 1.6 1.6 0.00 0.00 0.00 43 1014.4
20260905190755 36 150 3.2 3.2 0.00 0.00 0.00 44 1014.4
20260905190249 35 151 0.0 0.0 0.00 0.00 0.00 43 1014.3
20260905185747 35 173 0.0 3.2 0.00 0.00 0.00 43 1014.4
20260905185242 35 175 0.0 3.2 0.00 0.00 0.00 45 1014.6
20260905184736 35 203 0.0 3.2 0.00 0.00 0.00 43 1014.4
20260905184236 35 310 1.6 3.2 0.00 0.00 0.00 44 1014.6
20260905183730 35 310 3.2 3.2 0.00 0.00 0.00 44 1014.7
20260905183225 35 311 0.0 1.6 0.00 0.00 0.00 48 1014.8
20260905182719 35 311 0.0 0.0 0.00 0.00 0.00 47 1014.9
20260905182219 35 311 0.0 0.0 0.00 0.00 0.00 47 1014.9
20260905181714 35 318 6.4 8.0 0.00 0.00 0.00 44 1014.9
20260905181213 36 317 0.0 4.8 0.00 0.00 0.00 44 1015.2
20260905180708 35 254 0.0 4.8 0.00 0.00 0.00 44 1015.1
20260905180203 35 313 1.6 4.8 0.00 0.00 0.00 45 1015.0
20260905175703 35 164 1.6 3.2 0.00 0.00 0.00 47 1015.0
20260905175157 35 164 3.2 4.8 0.00 0.00 0.00 46 1015.1
20260905174653 35 164 3.2 3.2 0.00 0.00 0.00 47 1015.1
20260905174149 35 165 4.8 8.0 0.00 0.00 0.00 48 1015.3
20260905173644 34 169 3.2 3.2 0.00 0.00 0.00 47 1015.4
20260905173140 34 178 3.2 4.8 0.00 0.00 0.00 48 1015.3
20260905172639 33 315 0.0 1.6 0.00 0.00 0.00 50 1015.6